Wausau, WI

4:03 AM CDT on April 29, 2017 (GMT -0500)
Wausau Downtown

Weather History for KAUW - February, 2012

Change the Weather History Date:

Friday, February 17, 2012

  Actual Average Record
Temperature  
Mean Temperature 27 °F 20 °F  
Max Temperature 34 °F 29 °F 53 °F (2017)
Min Temperature 20 °F 11 °F -25 °F (1979)
Degree Days  
Heating Degree Days 38 45  
Month to date heating degree days 689 808  
Since 1 July heating degree days 4879 5658  
Cooling Degree Days 0 0  
Month to date cooling degree days 0 0  
Year to date cooling degree days 0 0  
Moisture  
Dew Point 23 °F    
Average Humidity 80    
Maximum Humidity 92    
Minimum Humidity 68    
Precipitation  
Precipitation 0.02 in 0.03 in 0.45 in (2008)
Month to date precipitation 0.19 0.51  
Year to date precipitation 1.23 1.53  
Snow  
Snow 0.30 in 0.30 in 6.00 in (2014)
Month to date snowfall 2.8 5.8  
Since 1 July snowfall 27.4 41.5  
Snow Depth 8.00 in    
Sea Level Pressure  
Sea Level Pressure 30.00 in    
Wind  
Wind Speed 4 mph (WSW)    
Max Wind Speed 17 mph    
Max Gust Speed 24 mph    
Visibility 6 miles    
Events Snow    
T = Trace of Precipitation, MM = Missing Value Source: NWS Daily Summary

Daily Weather History Graph

Daily Weather History Graph

Search for Another Location

Airport or City:

Trip Planner

Search our weather history database for the weather conditions in past years. The results will help you decide how hot, cold, wet, or windy it might be!

Date:

Astronomy

Feb. 17, 2012 Rise Set
Actual Time 6:56 AM CST 5:28 PM CST
Civil Twilight 6:26 AM CST 5:58 PM CST
Nautical Twilight 5:52 AM CST 6:33 PM CST
Astronomical Twilight 5:18 AM CST 7:07 PM CST
Moon 3:56 AM CST (2/17) 1:13 PM CST (2/17)
Length of Visible Light 11h 31m
Length of Day
10h 31m
Waning Crescent, 19% of the Moon is Illuminated
Feb 17
Waning Crescent
Feb 21
New
Feb 29
First Quarter
Mar 8
Full
Mar 14
Last Quarter

Hourly Weather History & Observations

Time (CST) Temp. Windchill Dew Point Humidity Pressure Visibility Wind Dir Wind Speed Gust Speed Precip Events Conditions
12:54 AM 28.0 °F 22.8 °F 19.0 °F 69% 30.06 in 10.0 mi WNW 4.6 mph - N/A   Mostly Cloudy
1:54 AM 27.0 °F - 19.0 °F 72% 30.06 in 10.0 mi Calm Calm - N/A   Partly Cloudy
2:54 AM 24.1 °F - 17.1 °F 75% 30.06 in 10.0 mi Calm Calm - N/A   Clear
3:54 AM 24.1 °F 16.0 °F 17.1 °F 75% 30.06 in 10.0 mi SSW 6.9 mph - N/A   Clear
4:54 AM 23.0 °F - 17.1 °F 78% 30.06 in 10.0 mi Calm Calm - N/A   Clear
5:54 AM 23.0 °F 18.4 °F 17.1 °F 78% 30.05 in 10.0 mi South 3.5 mph - N/A   Clear
6:54 AM 21.0 °F 16.2 °F 16.0 °F 81% 30.05 in 10.0 mi South 3.5 mph - N/A   Overcast
7:54 AM 23.0 °F - 18.0 °F 81% 30.06 in 7.0 mi Calm Calm - N/A   Overcast
8:54 AM 25.0 °F - 19.9 °F 81% 30.06 in 9.0 mi Calm Calm - N/A   Overcast
9:13 AM 24.8 °F 16.9 °F 19.4 °F 80% 30.00 in 1.8 mi SSW 6.9 mph - 0.00 in Snow Light Snow
9:22 AM 24.8 °F 17.9 °F 21.2 °F 86% 30.00 in 3.0 mi SSW 5.8 mph - 0.00 in Snow Light Snow
9:30 AM 26.6 °F 19.1 °F 21.2 °F 80% 30.00 in 2.0 mi SW 6.9 mph - 0.00 in Snow Light Snow
9:37 AM 26.6 °F 19.1 °F 21.2 °F 80% 30.00 in 1.0 mi SW 6.9 mph - 0.00 in Snow Light Snow
9:47 AM 26.6 °F 22.6 °F 21.2 °F 80% 29.99 in 2.0 mi SW 3.5 mph - 0.00 in Snow Light Snow
9:54 AM 26.1 °F - 21.9 °F 84% 30.05 in 4.0 mi Calm Calm - 0.00 in   Overcast
10:05 AM 26.6 °F - 21.2 °F 80% 29.99 in 6.0 mi Calm Calm - N/A   Haze
10:15 AM 26.6 °F - 23.0 °F 86% 29.99 in 6.0 mi Calm Calm - N/A   Overcast
10:37 AM 28.4 °F 24.6 °F 24.8 °F 86% 29.98 in 6.0 mi SSE 3.5 mph - 0.00 in   Overcast
10:54 AM 30.0 °F 26.5 °F 25.0 °F 82% 30.04 in 8.0 mi SE 3.5 mph - 0.00 in   Overcast
11:54 AM 33.1 °F 26.9 °F 26.1 °F 75% 30.01 in 9.0 mi SE 6.9 mph - N/A   Overcast
12:10 PM 33.8 °F 26.4 °F 26.6 °F 75% 29.94 in 5.0 mi SE 9.2 mph - 0.00 in Snow Light Snow
12:45 PM 33.8 °F 27.7 °F 26.6 °F 75% 29.93 in 8.0 mi SE 6.9 mph - 0.00 in   Overcast
12:54 PM 34.0 °F 26.6 °F 26.1 °F 73% 29.99 in 10.0 mi SSE 9.2 mph - 0.00 in   Overcast
1:54 PM 34.0 °F 28.8 °F 26.1 °F 73% 29.98 in 10.0 mi SSW 5.8 mph - N/A   Overcast
2:54 PM 34.0 °F 29.8 °F 26.1 °F 73% 29.97 in 10.0 mi South 4.6 mph - N/A   Overcast
3:54 PM 33.1 °F 28.7 °F 26.1 °F 75% 29.99 in 9.0 mi SSW 4.6 mph - 0.00 in   Overcast
4:54 PM 32.0 °F 28.7 °F 28.0 °F 85% 29.99 in 4.0 mi West 3.5 mph - 0.00 in Snow Light Snow
5:19 PM 32.0 °F - 28.4 °F 87% 29.93 in 2.5 mi Calm Calm - 0.00 in Snow Light Snow
5:29 PM 32.0 °F - 28.4 °F 87% 29.93 in 1.8 mi Calm Calm - 0.00 in Snow Light Snow
5:40 PM 32.0 °F - 28.4 °F 87% 29.93 in 3.0 mi Calm Calm - 0.00 in Snow Light Snow
5:54 PM 32.0 °F 28.7 °F 28.0 °F 85% 30.00 in 3.0 mi West 3.5 mph - 0.00 in Snow Light Snow
6:32 PM 32.0 °F 27.5 °F 28.4 °F 87% 29.94 in 7.0 mi NW 4.6 mph - 0.00 in   Overcast
6:54 PM 30.9 °F 26.2 °F 28.0 °F 89% 30.01 in 6.0 mi NW 4.6 mph - 0.00 in   Overcast
7:20 PM 30.2 °F 25.4 °F 28.4 °F 93% 29.94 in 6.0 mi WNW 4.6 mph - N/A   Overcast
7:54 PM 30.9 °F 27.5 °F 28.0 °F 89% 30.01 in 6.0 mi NW 3.5 mph - N/A   Overcast
8:16 PM 30.2 °F 23.4 °F 28.4 °F 93% 29.95 in 7.0 mi WNW 6.9 mph - N/A   Overcast
8:54 PM 32.0 °F 24.8 °F 27.0 °F 82% 30.02 in 3.0 mi NW 8.1 mph - 0.00 in Snow Light Snow
9:00 PM 30.2 °F 21.9 °F 28.4 °F 93% 29.96 in 1.8 mi NW 9.2 mph - 0.00 in Snow Light Snow
9:07 PM 30.2 °F 23.4 °F 26.6 °F 86% 29.97 in 3.0 mi NNW 6.9 mph - 0.00 in Snow Light Snow
9:54 PM 28.0 °F 18.1 °F 19.9 °F 72% 30.05 in 10.0 mi North 11.5 mph 23.0 mph 0.00 in   Overcast
10:41 PM 26.6 °F 15.2 °F 19.4 °F 74% 30.01 in 10.0 mi North 13.8 mph 17.3 mph N/A   Overcast
10:54 PM 26.1 °F 16.8 °F 18.0 °F 71% 30.07 in 10.0 mi North 9.2 mph 19.6 mph N/A   Overcast
11:54 PM 26.1 °F 17.6 °F 16.0 °F 66% 30.08 in 10.0 mi North 8.1 mph - N/A   Overcast